| time (UTC) | temp F | wind direction | speed knots | gust knots | rain 1hr in | rain 24hr in | rain mn in | humidity % | barometer mb |
| 20260503233645 | 60 | 260 | 8.7 | 14.8 | 0.00 | 0.00 | 0.00 | 37 | 1011.5 |
| 20260503232355 | 60 | 245 | 7.8 | 14.8 | 0.00 | 0.00 | 0.00 | 38 | 1011.1 |
| 20260503230211 | 61 | 264 | 5.2 | 16.5 | 0.00 | 0.00 | 0.00 | 37 | 1011.4 |
| 20260503225702 | 60 | 261 | 4.3 | 16.5 | 0.00 | 0.00 | 0.00 | 37 | 1011.4 |
| 20260503225133 | 61 | 230 | 3.5 | 10.4 | 0.00 | 0.00 | 0.00 | 38 | 1011.3 |
| 20260503223210 | 60 | 231 | 5.2 | 12.2 | 0.00 | 0.00 | 0.00 | 38 | 1011.6 |
| 20260503222210 | 61 | 260 | 9.6 | 13.0 | 0.00 | 0.00 | 0.00 | 37 | 1011.6 |
| 20260503221210 | 61 | 245 | 5.2 | 13.9 | 0.00 | 0.00 | 0.00 | 38 | 1011.6 |
| 20260503220703 | 61 | 260 | 7.0 | 18.2 | 0.00 | 0.00 | 0.00 | 37 | 1011.7 |
| 20260503215652 | 61 | 263 | 7.8 | 17.4 | 0.00 | 0.00 | 0.00 | 38 | 1011.7 |
| 20260503214211 | 61 | 242 | 8.7 | 16.5 | 0.00 | 0.00 | 0.00 | 37 | 1011.5 |
| 20260503213642 | 61 | 273 | 8.7 | 17.4 | 0.00 | 0.00 | 0.00 | 37 | 1011.6 |
| 20260503212651 | 62 | 261 | 6.1 | 14.8 | 0.00 | 0.00 | 0.00 | 37 | 1011.5 |
| 20260503211211 | 61 | 231 | 5.2 | 14.8 | 0.00 | 0.00 | 0.00 | 36 | 1011.7 |
| 20260503210642 | 62 | 265 | 6.1 | 19.1 | 0.00 | 0.00 | 0.00 | 35 | 1011.5 |
| 20260503205210 | 62 | 277 | 7.8 | 14.8 | 0.00 | 0.00 | 0.00 | 35 | 1011.7 |
| 20260503204645 | 62 | 253 | 8.7 | 14.8 | 0.00 | 0.00 | 0.00 | 35 | 1011.6 |
| 20260503203210 | 61 | 264 | 6.1 | 14.8 | 0.00 | 0.00 | 0.00 | 36 | 1011.7 |
| 20260503202211 | 61 | 241 | 4.3 | 16.5 | 0.00 | 0.00 | 0.00 | 37 | 1011.6 |
| 20260503201210 | 62 | 243 | 4.3 | 11.3 | 0.00 | 0.00 | 0.00 | 37 | 1011.9 |
| 20260503200210 | 61 | 276 | 7.8 | 13.9 | 0.00 | 0.00 | 0.00 | 37 | 1012.0 |
| 20260503195211 | 61 | 251 | 4.3 | 13.0 | 0.00 | 0.00 | 0.00 | 38 | 1012.0 |
| 20260503194657 | 60 | 261 | 7.8 | 15.6 | 0.00 | 0.00 | 0.00 | 40 | 1012.3 |
| 20260503193314 | 60 | 242 | 5.2 | 12.2 | 0.00 | 0.00 | 0.00 | 41 | 1012.9 |
| 20260503193210 | 60 | 256 | 6.1 | 14.8 | 0.00 | 0.00 | 0.00 | 42 | 1012.6 |
| 20260503192718 | 60 | 257 | 7.0 | 13.0 | 0.00 | 0.00 | 0.00 | 41 | 1013.0 |
| 20260503190653 | 59 | 264 | 12.2 | 14.8 | 0.00 | 0.00 | 0.00 | 42 | 1013.1 |
| 20260503185657 | 60 | 274 | 10.4 | 16.5 | 0.00 | 0.00 | 0.00 | 40 | 1013.2 |
| 20260503185117 | 60 | 236 | 8.7 | 12.2 | 0.00 | 0.00 | 0.00 | 41 | 1013.3 |
| 20260503183210 | 60 | 276 | 6.1 | 16.5 | 0.00 | 0.00 | 0.00 | 41 | 1013.3 |
| 20260503182210 | 60 | 279 | 9.6 | 15.6 | 0.00 | 0.00 | 0.00 | 41 | 1013.3 |
| 20260503181210 | 60 | 259 | 7.8 | 16.5 | 0.00 | 0.00 | 0.00 | 39 | 1013.3 |
| 20260503180211 | 60 | 272 | 9.6 | 17.4 | 0.00 | 0.00 | 0.00 | 38 | 1013.6 |
| 20260503175210 | 59 | 254 | 8.7 | 15.6 | 0.00 | 0.00 | 0.00 | 37 | 1013.7 |
| 20260503174210 | 59 | 261 | 7.8 | 14.8 | 0.00 | 0.00 | 0.00 | 38 | 1013.7 |
| 20260503173210 | 59 | 265 | 7.8 | 15.6 | 0.00 | 0.00 | 0.00 | 39 | 1014.1 |
| 20260503172210 | 58 | 247 | 8.7 | 14.8 | 0.00 | 0.00 | 0.00 | 40 | 1014.0 |
| 20260503171649 | 58 | 273 | 7.8 | 16.5 | 0.00 | 0.00 | 0.00 | 39 | 1014.0 |
| 20260503170210 | 58 | 253 | 7.8 | 13.9 | 0.00 | 0.00 | 0.00 | 40 | 1014.2 |
| 20260503160210 | 55 | 250 | 7.8 | 19.1 | 0.00 | 0.00 | 0.00 | 40 | 1015.0 |
| 20260503150605 | 53 | 257 | 7.0 | 11.3 | 0.00 | 0.00 | 0.00 | 41 | 1015.2 |
| 20260503150347 | 53 | 243 | 6.1 | 14.8 | 0.00 | 0.00 | 0.00 | 40 | 1015.3 |
| 20260503140210 | 51 | 248 | 7.8 | 12.2 | 0.00 | 0.00 | 0.00 | 41 | 1015.6 |
| 20260503131210 | 47 | 257 | 4.3 | 9.6 | 0.00 | 0.00 | 0.00 | 42 | 1016.2 |
| 20260503130210 | 47 | 246 | 0.9 | 13.9 | 0.00 | 0.00 | 0.00 | 46 | 1016.2 |
| 20260503110643 | 40 | 167 | 2.6 | 6.1 | 0.00 | 0.01 | 0.00 | 70 | 1015.6 |
| 20260503100210 | 38 | 226 | 1.7 | 6.1 | 0.00 | 0.01 | 0.00 | 75 | 1015.4 |
| 20260503090218 | 38 | 215 | 1.7 | 5.2 | 0.00 | 0.01 | 0.00 | 76 | 1015.8 |
| 20260503080650 | 39 | 138 | 0.9 | 5.2 | 0.00 | 0.02 | 0.00 | 75 | 1015.6 |
| 20260503072210 | 39 | 295 | 1.7 | 4.3 | 0.00 | 0.03 | 0.00 | 76 | 1015.7 |
| 20260503071210 | 39 | 17 | 0.9 | 5.2 | 0.00 | 0.04 | 0.00 | 76 | 1015.8 |
| 20260503070210 | 39 | 209 | 2.6 | 5.2 | 0.00 | 0.04 | 0.00 | 76 | 1015.5 |
| 20260503060210 | 38 | 190 | 2.6 | 4.3 | 0.00 | 0.05 | 0.00 | 75 | 1015.9 |
| 20260503054210 | 39 | 186 | 1.7 | 3.5 | 0.00 | 0.06 | 0.00 | 74 | 1015.9 |
| 20260503053648 | 39 | 209 | 1.7 | 2.6 | 0.00 | 0.06 | 0.00 | 73 | 1016.2 |
| 20260503052210 | 39 | 194 | 0.0 | 2.6 | 0.00 | 0.07 | 0.00 | 74 | 1016.2 |
| 20260503051211 | 39 | 37 | 1.7 | 2.6 | 0.00 | 0.07 | 0.00 | 72 | 1016.3 |
| 20260503050652 | 39 | 217 | 0.0 | 2.6 | 0.00 | 0.07 | 0.00 | 71 | 1016.3 |
| 20260503045209 | 40 | 176 | 0.0 | 2.6 | 0.00 | 0.07 | 0.00 | 72 | 1016.3 |
| 20260503044210 | 40 | 47 | 1.7 | 2.6 | 0.00 | 0.07 | 0.00 | 71 | 1016.3 |
| 20260503043210 | 40 | 249 | 0.0 | 5.2 | 0.00 | 0.07 | 0.00 | 71 | 1016.3 |
| 20260503042211 | 40 | 216 | 3.5 | 5.2 | 0.00 | 0.08 | 0.00 | 70 | 1016.4 |
| 20260503041210 | 41 | 234 | 3.5 | 5.2 | 0.00 | 0.08 | 0.00 | 70 | 1016.5 |
| 20260503040210 | 41 | 222 | 4.3 | 5.2 | 0.00 | 0.08 | 0.00 | 70 | 1016.5 |
| 20260503035211 | 41 | 240 | 2.6 | 6.1 | 0.00 | 0.09 | 0.08 | 70 | 1016.4 |
| 20260503034210 | 42 | 229 | 2.6 | 5.2 | 0.00 | 0.09 | 0.08 | 69 | 1016.5 |
| 20260503033650 | 42 | 233 | 3.5 | 6.1 | 0.00 | 0.09 | 0.08 | 68 | 1016.5 |
| 20260503032210 | 42 | 214 | 3.5 | 5.2 | 0.00 | 0.09 | 0.08 | 67 | 1016.4 |
| 20260503031210 | 42 | 205 | 3.5 | 5.2 | 0.00 | 0.09 | 0.08 | 67 | 1016.6 |
| 20260503030658 | 43 | 203 | 3.5 | 5.2 | 0.00 | 0.09 | 0.08 | 66 | 1016.6 |
| 20260503025210 | 43 | 223 | 3.5 | 5.2 | 0.00 | 0.09 | 0.08 | 66 | 1016.6 |
| 20260503024210 | 43 | 234 | 3.5 | 5.2 | 0.00 | 0.09 | 0.08 | 66 | 1016.8 |
| 20260503023210 | 43 | 220 | 3.5 | 5.2 | 0.00 | 0.09 | 0.08 | 66 | 1016.8 |
| 20260503022210 | 43 | 211 | 4.3 | 5.2 | 0.00 | 0.09 | 0.08 | 65 | 1016.8 |
| 20260503021226 | 43 | 227 | 3.5 | 5.2 | 0.00 | 0.09 | 0.08 | 65 | 1016.9 |
| 20260503020210 | 43 | 200 | 4.3 | 5.2 | 0.00 | 0.09 | 0.08 | 65 | 1017.0 |
| 20260503015210 | 43 | 249 | 1.7 | 4.3 | 0.00 | 0.09 | 0.08 | 63 | 1016.9 |
| 20260503014218 | 43 | 281 | 2.6 | 5.2 | 0.00 | 0.09 | 0.08 | 62 | 1016.9 |
| 20260503013211 | 44 | 271 | 1.7 | 7.0 | 0.00 | 0.09 | 0.08 | 62 | 1017.0 |
| 20260503012211 | 44 | 264 | 3.5 | 7.8 | 0.00 | 0.09 | 0.08 | 62 | 1017.0 |
| 20260503011210 | 44 | 261 | 3.5 | 7.8 | 0.00 | 0.09 | 0.08 | 61 | 1016.9 |
| 20260503010210 | 43 | 250 | 5.2 | 7.0 | 0.00 | 0.09 | 0.08 | 61 | 1016.8 |
| 20260503005210 | 43 | 257 | 5.2 | 7.0 | 0.00 | 0.09 | 0.08 | 60 | 1016.9 |
| 20260503004210 | 43 | 268 | 2.6 | 6.1 | 0.00 | 0.09 | 0.08 | 59 | 1016.8 |
| 20260503003645 | 43 | 262 | 5.2 | 7.0 | 0.00 | 0.09 | 0.08 | 58 | 1016.7 |
| 20260503002210 | 43 | 275 | 3.5 | 7.0 | 0.00 | 0.09 | 0.08 | 58 | 1016.6 |
| 20260503001647 | 43 | 286 | 3.5 | 6.1 | 0.00 | 0.09 | 0.08 | 59 | 1016.7 |
| 20260503000211 | 43 | 245 | 3.5 | 7.0 | 0.00 | 0.09 | 0.08 | 61 | 1016.7 |
| 20260502235651 | 43 | 257 | 6.1 | 7.0 | 0.00 | 0.09 | 0.08 | 61 | 1016.7 |
| 20260502234210 | 43 | 278 | 5.2 | 7.0 | 0.00 | 0.09 | 0.08 | 60 | 1016.5 |